Aeroporto :
LOGIN :

Iscrizione | Disclaimer

   EN    FR    IT 

 










Sommario :    VFR   VFR Marginale   IFR   IFR Intensivo   IFR Molto Intensivo
Visibilità : 
Base nubi : 
>= 8 km
>= 3000ft
5 / 8 km
1000 / 3000 ft
1500m / 5 km
500 / 1000 ft
800 / 1500m
200 / 500 ft
< 800m
< 200 ft
Simboli :   Temporali  Nebbia  Neve Forte  Precipitazioni Forti  Vento > 20 kt
SIGMETs :   Varie  Temporali  Ghiacco  Turbolenza  Onda orograficha  Ceneri Vulcaniche






- Altitudine del aeroporto : 408 ft
- Codice IATA : FKB


EDSB - Karlsruhe Baden Baden

ULTIMO METAR :
  • 291620Z 05015KT CAVOK 22/03 Q1022

METARs OBSOLETI :
  • 291550Z 05014KT 360V090 CAVOK 22/04 Q1022
  • 291520Z 05012KT 020V080 CAVOK 22/04 Q1022
  • 291450Z 05010KT 360V090 CAVOK 22/04 Q1022
  • 291420Z 06011KT 030V100 CAVOK 23/04 Q1023

TAF TAF EDSB
Valido dal 29 a 12 ore il 30 a 12 ore UTC


291100Z 2912/3012 03014KT CAVOK
BECMG 2918/2920 03007KT
BECMG 3006/3008 03013KT
TEMPO 3010/3012 03015G25KT



MetMap, La meteo Aeronautica in un colpo d'occhio ! - Copyright ORBIFLY Dicembre 2007 - Disclaimer

ORBIFLY MET'MAP TEAM :

Programmazione e sviluppo : Alexandra Zaïnal
Concezione : Baudouin d'Aumeries
Aiuto per la programmazione : Marc-Olivier Méhu
Supporto tecnico e logistico : Manuel Goepfert
Aiuto per la traduzione : Arnaldo La Scala

Contatto : metmap@orbifly.com




FONTI E CREDITI :

   NOAA